User: anonymous   Login
Location: Unspecified
(0.0000°N, 0.0000°E)
Time: 07:25:22
(UTC+00:00)
Language:

USA 245 - Orbit

View from above orbital plane
View from above orbital plane
View from above satellite
View from above satellite

Ground track
Ground track

The orbit data is extracted from the following two-line orbital elements,

1 39232U 13043A   17254.88318858 0.00018500  00000-0  18429-3 0    02
2 39232  97.8699 316.1017 0515372  77.4160 282.5838 14.81004052    07
Epoch (UTC): 11 September 2017 21:11:47
Eccentricity: 0.0515372
inclination: 97.8699°
perigee height: 265 km
apogee height: 987 km
right ascension of ascending node: 316.1017°
argument of perigee: 77.4160°
revolutions per day: 14.81004052
mean anomaly at epoch: 282.5838°
orbit number at epoch: 0

The dashed part of the orbit path shows where the satellite is in the earth's shadow,  

DLR